time_stamp(utc),avg(mph),gust(mph),direction(deg),12m_air_temp(f),sonic_u(cm/s),sonic_v(cm/s),sonic_w(cm/s),pressure,2m_air_temp(f),pyranometer(W/m^2)
"2018-12-05 00:02:07+00",8.8,9.8,,35.9,-112,360,20,1015.41,34.2,0
"2018-12-05 00:07:07+00",11.1,12.1,,36,-144,463,14,1015.44,34.4,0
"2018-12-05 00:12:07+00",9.5,12.5,,35.9,-96,405,15,1015.5,34.4,0
"2018-12-05 00:17:07+00",10.8,11.8,,35.8,-73,473,7,1015.63,34.3,0
"2018-12-05 00:22:07+00",9.8,10.8,,35.6,-61,425,11,1015.6,34.1,0
"2018-12-05 00:27:07+00",10.3,12.3,,35.6,-74,443,13,1015.61,33.9,0
"2018-12-05 00:32:07+00",11.2,12.2,,35.5,-110,471,10,1015.66,33.8,0
"2018-12-05 00:37:07+00",10.5,11.5,,35.3,-105,447,6,1015.59,33.8,0
"2018-12-05 00:42:07+00",10.6,11.6,,35.1,-78,457,11,1015.71,33.6,0
"2018-12-05 00:47:07+00",11.1,13.1,,34.9,-134,464,18,1015.62,33.5,0
"2018-12-05 00:52:07+00",9.3,10.3,,34.7,-99,388,15,1015.77,33.4,0
"2018-12-05 00:57:07+00",8.6,9.6,,34.4,-74,368,8,1015.83,33.2,0
"2018-12-05 01:02:07+00",8.6,10.6,,34.3,-113,355,13,1015.92,32.9,0
"2018-12-05 01:07:07+00",8.3,9.3,,34.3,-113,335,11,1015.95,32.8,0
"2018-12-05 01:12:07+00",8.6,9.6,,34.3,-141,345,21,1016.07,32.7,0
"2018-12-05 01:17:07+00",7.5,8.5,,34.3,-111,307,17,1016.17,32.7,0
"2018-12-05 01:22:07+00",8.0,9.0,,34.4,-172,299,18,1016.19,32.7,0
"2018-12-05 01:27:07+00",7.6,8.6,,34.4,-148,288,16,1016.25,32.8,0
"2018-12-05 01:32:07+00",7.7,8.7,,34.4,-169,287,17,1016.24,32.8,0
"2018-12-05 01:37:07+00",7.9,8.9,,34.3,-178,293,18,1016.37,32.8,0
"2018-12-05 01:42:07+00",9.3,10.3,,34.4,-216,340,20,1016.31,32.8,0
"2018-12-05 01:47:07+00",8.6,9.6,,34.3,-175,340,16,1016.45,32.8,0
"2018-12-05 01:52:07+00",8.4,9.4,,34,-178,318,18,1016.44,32.7,0
"2018-12-05 01:57:07+00",9.8,10.8,,33.9,-219,365,26,1016.54,32.7,0
"2018-12-05 02:02:07+00",10.0,11.0,,33.7,-219,375,26,1016.5,32.6,0
"2018-12-05 02:07:07+00",9.5,10.5,,33.4,-205,359,21,1016.65,32.5,0
"2018-12-05 02:12:07+00",9.0,10.0,,33.3,-191,344,20,1016.72,32.4,0
"2018-12-05 02:17:07+00",10.3,11.3,,33.3,-226,393,23,1016.68,32.2,0
"2018-12-05 02:22:07+00",9.2,10.2,,33,-176,358,19,1016.76,32.1,0
"2018-12-05 02:27:07+00",9.6,10.6,,32.9,-172,380,12,1016.75,31.9,0
"2018-12-05 02:32:07+00",8.4,9.4,,32.7,-132,335,20,1016.79,31.8,0
"2018-12-05 02:37:07+00",9.0,10.0,,32.6,-86,380,5,1016.82,31.6,0
"2018-12-05 02:42:07+00",8.8,9.8,,32.4,-95,372,9,1016.75,31.2,0
"2018-12-05 02:47:07+00",9.8,10.8,,32.2,-147,394,21,1016.67,31,0
"2018-12-05 02:52:07+00",9.8,11.8,,32.2,-136,411,27,1016.72,30.9,0
"2018-12-05 02:57:07+00",10.9,12.9,,32,-156,461,19,1016.6,30.9,0
"2018-12-05 03:02:07+00",10.0,13.0,,31.8,-155,412,23,1016.6,30.8,0
"2018-12-05 03:07:07+00",9.8,11.8,,31.7,-128,411,16,1016.66,30.8,0
"2018-12-05 03:12:07+00",10.5,11.5,,31.7,-155,436,14,1016.64,30.7,0
"2018-12-05 03:17:07+00",10.5,11.5,,31.6,-148,433,16,1016.79,30.7,0
"2018-12-05 03:22:07+00",10.2,12.2,,31.6,-132,410,22,1016.66,30.6,0
"2018-12-05 03:27:07+00",10.1,11.1,,31.5,-173,407,20,1016.73,30.5,0
"2018-12-05 03:32:07+00",9.1,11.1,,31.3,-116,374,20,1016.78,30.4,0
"2018-12-05 03:37:07+00",9.2,11.2,,31.3,-99,387,14,1016.79,30.3,0
"2018-12-05 03:42:07+00",10.4,11.4,,31.2,-182,413,25,1016.7,30.2,0
"2018-12-05 03:47:07+00",9.6,11.6,,31.2,-105,405,16,1016.75,30.2,0
"2018-12-05 03:52:07+00",9.6,10.6,,31.1,-162,380,27,1016.69,30.1,0
"2018-12-05 03:57:07+00",8.7,10.7,,30.9,-130,352,20,1016.77,30,0
"2018-12-05 04:02:07+00",9.7,10.7,,30.8,-162,383,15,1016.82,29.9,0
"2018-12-05 04:07:07+00",8.2,11.2,,30.8,-110,341,17,1016.9,29.9,0
"2018-12-05 04:12:07+00",9.5,11.5,,30.7,-112,399,14,1016.94,29.7,0
"2018-12-05 04:17:07+00",9.1,11.1,,30.7,-107,386,17,1016.88,29.6,0
"2018-12-05 04:22:07+00",8.1,10.1,,30.8,-71,342,17,1017,29.5,0
"2018-12-05 04:27:07+00",10.0,11.0,,31,-88,417,16,1016.82,29.5,0
"2018-12-05 04:32:07+00",10.5,12.5,,31.1,-84,445,11,1016.99,29.5,0
"2018-12-05 04:37:07+00",9.4,12.4,,31.1,-79,404,22,1016.96,29.6,0
"2018-12-05 04:42:07+00",11.1,12.1,,31.2,-78,468,15,1016.99,29.6,0
"2018-12-05 04:47:07+00",10.0,12.0,,31.2,-64,433,14,1017.01,29.6,0
"2018-12-05 04:52:07+00",10.4,11.4,,31,-68,448,18,1016.93,29.5,0
"2018-12-05 04:57:07+00",11.0,13.0,,31.1,-71,472,11,1016.79,29.4,0
"2018-12-05 05:02:07+00",12.2,13.2,,31.2,-11,529,9,1016.64,29.5,0
"2018-12-05 05:07:07+00",10.4,12.4,,31,34,454,3,1016.64,29.5,0
"2018-12-05 05:12:07+00",11.9,13.9,,31,31,525,0,1016.51,29.4,0
"2018-12-05 05:17:07+00",11.5,13.5,,31,17,491,8,1016.47,29.5,0
"2018-12-05 05:22:07+00",12.5,14.5,,30.9,56,532,10,1016.51,29.5,0
"2018-12-05 05:27:07+00",11.8,14.8,,30.8,16,516,-2,1016.44,29.4,0
"2018-12-05 05:32:07+00",9.9,11.9,,30.8,16,430,11,1016.52,29.4,0
"2018-12-05 05:37:07+00",10.5,12.5,,30.7,9,458,11,1016.54,29.3,0
"2018-12-05 05:42:07+00",11.6,13.6,,30.7,12,500,3,1016.58,29.2,0
"2018-12-05 05:47:07+00",10.3,11.3,,30.6,-12,445,12,1016.52,29.2,0
"2018-12-05 05:52:07+00",10.3,12.3,,30.6,17,443,2,1016.53,29.1,0
"2018-12-05 05:57:07+00",10.5,12.5,,30.5,2,457,17,1016.52,29,0
"2018-12-05 06:02:07+00",11.0,12.0,,30.5,17,471,5,1016.54,28.9,0
"2018-12-05 06:07:07+00",10.8,11.8,,30.5,-14,471,12,1016.5,28.9,0
"2018-12-05 06:12:07+00",10.2,13.2,,30.5,13,445,14,1016.5,28.9,0
"2018-12-05 06:17:07+00",9.5,11.5,,30.4,-5,421,18,1016.44,28.9,0
"2018-12-05 06:22:07+00",10.9,12.9,,30.5,39,468,15,1016.49,28.9,0
"2018-12-05 06:27:07+00",10.4,12.4,,30.5,10,449,3,1016.52,28.9,0
"2018-12-05 06:32:07+00",11.2,13.2,,30.5,33,487,4,1016.52,28.9,0
"2018-12-05 06:37:07+00",10.1,12.1,,30.4,30,432,13,1016.45,29,0
"2018-12-05 06:42:07+00",11.2,12.2,,30.3,-16,483,13,1016.49,28.9,0
"2018-12-05 06:47:07+00",11.3,13.3,,30.3,63,477,2,1016.43,28.8,0
"2018-12-05 06:52:07+00",9.5,11.5,,30.2,2,411,8,1016.38,28.8,0
"2018-12-05 06:57:07+00",9.3,10.3,,29.9,52,393,11,1016.35,28.7,0
"2018-12-05 07:02:07+00",9.5,11.5,,30,53,405,10,1016.37,28.6,0
"2018-12-05 07:07:07+00",10.2,11.2,,30,85,427,-4,1016.4,28.6,0
"2018-12-05 07:12:07+00",10.9,13.9,,30.1,110,445,9,1016.25,28.7,0
"2018-12-05 07:17:07+00",12.1,13.1,,30.2,144,485,-4,1016.3,28.9,0
"2018-12-05 07:22:07+00",10.5,12.5,,30.1,100,435,8,1016.33,29,0
"2018-12-05 07:27:07+00",9.5,11.5,,30,93,388,-2,1016.17,29,0
"2018-12-05 07:32:07+00",10.0,13.0,,30,187,369,13,1016.22,28.9,0
"2018-12-05 07:37:07+00",11.0,14.0,,30.1,214,414,10,1016.23,29,0
"2018-12-05 07:42:07+00",10.9,12.9,,30.1,201,414,3,1016.28,29.1,0
"2018-12-05 07:47:07+00",10.4,13.4,,30.2,154,401,5,1016.27,29.3,0
"2018-12-05 07:52:07+00",9.4,12.4,,30.2,159,354,9,1016.33,29.3,0
"2018-12-05 07:57:07+00",9.2,11.2,,30.2,149,351,1,1016.2,29.3,0
"2018-12-05 08:02:07+00",10.1,12.1,,30.2,202,374,6,1016.17,29.3,0
"2018-12-05 08:07:07+00",11.0,13.0,,30.2,193,425,-11,1016.11,29.3,0
"2018-12-05 08:12:07+00",10.4,12.4,,30.2,135,409,-2,1016.26,29.4,0
"2018-12-05 08:17:07+00",10.1,11.1,,30.1,163,387,-1,1016.21,29.3,0
"2018-12-05 08:22:07+00",12.1,13.1,,30,211,464,-5,1016.05,29.2,0
"2018-12-05 08:27:07+00",10.0,12.0,,29.9,169,379,3,1016.05,29,0
"2018-12-05 08:32:07+00",10.6,11.6,,30,198,402,2,1015.88,28.9,0
"2018-12-05 08:37:07+00",9.8,10.8,,30.1,171,376,-1,1015.81,28.9,0
"2018-12-05 08:42:07+00",8.9,9.9,,30.3,135,345,-4,1015.85,29,0
"2018-12-05 08:47:07+00",8.3,10.3,,30.4,118,323,5,1015.63,29.1,0
"2018-12-05 08:52:07+00",10.7,11.7,,30.5,156,409,-6,1015.63,29.2,0
"2018-12-05 08:57:07+00",9.5,10.5,,30.7,164,359,-3,1015.64,29.3,0
"2018-12-05 09:02:07+00",10.0,11.0,,30.8,150,383,5,1015.56,29.3,0
"2018-12-05 09:07:07+00",9.1,10.1,,31,170,340,1,1015.5,29.4,0
"2018-12-05 09:12:07+00",11.7,13.7,,31,199,454,-3,1015.51,29.5,0
"2018-12-05 09:17:07+00",9.3,10.3,,31.3,175,350,3,1015.49,29.8,0
"2018-12-05 09:22:07+00",8.8,9.8,,31.3,192,321,-4,1015.24,29.9,0
"2018-12-05 09:27:07+00",10.1,12.1,,31.5,173,385,-5,1015.38,30,0
"2018-12-05 09:32:07+00",9.8,11.8,,31.9,133,382,-3,1015.38,30.3,0
"2018-12-05 09:37:07+00",10.3,11.3,,32,179,396,1,1015.18,30.5,0
"2018-12-05 09:42:07+00",10.8,11.8,,32.4,118,431,6,1015.06,30.8,0
"2018-12-05 09:47:07+00",11.6,13.6,,33.1,118,471,5,1015.03,31.1,0
"2018-12-05 09:52:07+00",10.2,13.2,,33.2,152,397,-3,1015.05,31.4,0
"2018-12-05 09:57:07+00",11.7,12.7,,33.2,258,439,1,1014.87,31.6,0
"2018-12-05 10:02:07+00",10.5,12.5,,33.5,155,412,6,1014.97,31.9,0
"2018-12-05 10:07:07+00",9.7,11.7,,33.6,128,376,3,1015.08,32.1,0
"2018-12-05 10:12:07+00",8.4,9.4,,33.6,187,296,14,1015.03,32.1,0
"2018-12-05 10:17:07+00",10.7,10.7,,33.8,202,406,18,1014.93,32.3,0
"2018-12-05 10:22:07+00",11.3,13.3,,33.9,203,427,-27,1014.94,32.3,0
"2018-12-05 10:27:07+00",9.0,11.0,,33.6,165,332,15,1014.84,32.3,0
"2018-12-05 10:32:07+00",8.6,10.6,,34.1,135,324,-1,1014.98,32.4,0
"2018-12-05 10:37:07+00",11.3,13.3,,35.7,236,421,16,1014.79,32.9,0
"2018-12-05 10:42:07+00",8.5,9.5,,34.2,175,302,11,1015.02,32.9,0
"2018-12-05 10:47:07+00",7.1,9.1,,33.6,75,278,15,1014.94,32.5,0
"2018-12-05 10:52:07+00",7.2,8.2,,32.9,18,307,24,1015.11,31.9,0
"2018-12-05 10:57:07+00",10.4,12.4,,32.4,-26,447,4,1015.15,31.5,0
"2018-12-05 11:02:07+00",12.2,13.2,,32.3,-118,518,17,1015.12,31.4,0
"2018-12-05 11:07:07+00",10.0,11.0,,32.2,-100,422,10,1015.11,31.5,0
"2018-12-05 11:12:07+00",9.4,10.4,,32.4,-71,394,11,1015.26,31.5,0
"2018-12-05 11:17:07+00",10.3,11.3,,32.2,-70,447,10,1015.24,31.6,0
"2018-12-05 11:22:07+00",11.6,12.6,,31.9,-50,507,18,1015.28,31.6,0
"2018-12-05 11:27:07+00",11.4,12.4,,31.9,-17,499,13,1015.36,31.5,0
"2018-12-05 11:32:07+00",10.9,11.9,,31.7,-23,472,20,1015.44,31.5,0
"2018-12-05 11:37:07+00",9.7,10.7,,31.7,-4,422,24,1015.37,31.5,0
"2018-12-05 11:42:07+00",11.3,13.3,,31.9,27,493,12,1015.48,31.6,0
"2018-12-05 11:47:07+00",11.2,12.2,,32.2,10,492,18,1015.5,31.7,0
"2018-12-05 11:52:07+00",10.7,11.7,,32.4,-18,466,22,1015.52,31.9,0
"2018-12-05 11:57:07+00",12.9,14.9,,32.6,40,557,15,1015.36,32.2,0
"2018-12-05 12:02:07+00",14.0,15.0,,33,103,599,-4,1015.41,32.4,0
"2018-12-05 12:07:07+00",13.2,15.2,,32.9,97,557,10,1015.4,32.6,0
"2018-12-05 12:12:07+00",13.7,14.7,,33.2,140,567,14,1015.4,32.8,0
"2018-12-05 12:17:07+00",13.0,17.0,,33.3,133,549,22,1015.39,32.9,0
"2018-12-05 12:22:07+00",15.6,17.6,,33.3,92,664,8,1015.45,32.9,0
"2018-12-05 12:27:07+00",12.8,14.8,,33.3,121,532,14,1015.46,33,0
"2018-12-05 12:32:07+00",13.7,14.7,,33.3,125,570,-5,1015.49,33,0
"2018-12-05 12:37:07+00",14.7,15.7,,33.3,102,634,10,1015.4,33,0
"2018-12-05 12:42:07+00",14.2,17.2,,33.4,200,560,-2,1015.37,33.1,0
"2018-12-05 12:47:07+00",13.2,16.2,,34,251,512,16,1015.45,33.5,0
"2018-12-05 12:52:07+00",17.3,19.3,,34,357,652,1,1015.32,33.8,0
"2018-12-05 12:57:07+00",14.6,18.6,,33.9,292,562,7,1015.27,33.8,0
"2018-12-05 13:02:07+00",15.5,16.5,,33.8,287,601,-1,1015.35,33.8,0
"2018-12-05 13:07:07+00",15.0,17.0,,34,329,556,12,1015.45,33.8,0
"2018-12-05 13:12:07+00",14.0,17.0,,34.2,268,532,18,1015.43,34,0
"2018-12-05 13:17:07+00",17.1,18.1,,34,329,658,-8,1015.48,34,0
"2018-12-05 13:22:07+00",13.2,15.2,,34.1,257,497,24,1015.47,34,0
"2018-12-05 13:27:07+00",16.1,20.1,,34.4,318,612,4,1015.55,34.1,0
"2018-12-05 13:32:07+00",16.0,19.0,,34.4,340,594,13,1015.6,34.2,0
"2018-12-05 13:37:07+00",14.8,18.8,,34.4,221,578,2,1015.65,34.2,0
"2018-12-05 13:42:07+00",13.5,18.5,,34.4,224,520,20,1015.51,34.2,0
"2018-12-05 13:47:07+00",14.2,17.2,,34.4,242,545,12,1015.38,34.2,0
"2018-12-05 13:52:07+00",15.2,17.2,,34.3,232,595,1,1015.39,34.1,0
"2018-12-05 13:57:07+00",13.5,17.5,,34.3,231,529,10,1015.31,34.2,0
"2018-12-05 14:02:07+00",12.1,14.1,,34.6,251,440,16,1015.38,34.4,0.8
"2018-12-05 14:07:07+00",13.9,17.9,,34.6,222,543,-11,1015.31,34.4,0.2
"2018-12-05 14:12:07+00",15.6,17.6,,34.6,287,599,-4,1015.33,34.4,2.3
"2018-12-05 14:17:07+00",13.4,15.4,,34.6,251,506,-6,1015.37,34.4,0.4
"2018-12-05 14:22:07+00",14.4,16.4,,34.8,271,550,-9,1015.39,34.5,0.2
"2018-12-05 14:27:07+00",10.5,12.5,,34.9,159,415,18,1015.31,34.6,0.6
"2018-12-05 14:32:07+00",10.7,13.7,,34.9,140,415,4,1015.32,34.6,9.9
"2018-12-05 14:37:07+00",12.0,14.0,,35.1,141,487,-8,1015.29,34.8,7.5
"2018-12-05 14:42:07+00",12.1,15.1,,35.2,119,502,10,1015.37,34.9,0.4
"2018-12-05 14:47:07+00",9.9,11.9,,35.2,46,413,9,1015.47,34.9,0.8
"2018-12-05 14:52:07+00",10.2,13.2,,35.1,55,431,8,1015.4,34.9,0.7
"2018-12-05 14:57:07+00",10.8,13.8,,34.9,-11,473,15,1015.34,34.7,0
"2018-12-05 15:02:07+00",9.0,10.0,,34.7,10,396,16,1015.43,34.6,0
"2018-12-05 15:07:07+00",8.5,10.5,,34.6,-12,369,18,1015.42,34.4,0
"2018-12-05 15:12:07+00",7.9,9.9,,34.3,28,331,4,1015.58,34.2,0
"2018-12-05 15:17:07+00",6.2,7.2,,33.6,57,246,-1,1015.54,33.8,0
"2018-12-05 15:22:07+00",4.0,6.0,,33.4,-94,132,3,1015.5,33.6,0
"2018-12-05 15:27:07+00",3.8,4.8,,33.4,-122,89,20,1015.48,33.5,0
"2018-12-05 15:32:07+00",5.0,6.0,,33,-203,86,8,1015.41,33.3,0
"2018-12-05 15:37:07+00",9.2,11.2,,31.8,-404,104,42,1015.37,32.9,0
"2018-12-05 15:42:07+00",10.5,11.5,,30.7,-464,-2,28,1015.25,32.3,0
"2018-12-05 15:47:07+00",11.4,12.4,,30.5,-509,94,30,1015.2,31.8,0
"2018-12-05 15:52:07+00",11.0,12.0,,30.8,-486,68,25,1015.22,31.7,0
"2018-12-05 15:57:07+00",10.7,11.7,,31.1,-471,73,20,1015.15,31.8,0
"2018-12-05 16:02:07+00",12.0,13.0,,31.1,-532,35,17,1014.95,31.8,0
"2018-12-05 16:07:07+00",10.6,12.6,,31,-469,84,14,1015.03,31.8,0
"2018-12-05 16:12:07+00",11.1,15.1,,31.5,-356,323,12,1014.81,31.7,0
"2018-12-05 16:17:07+00",7.9,9.9,,31.5,-277,221,9,1014.8,31.7,0
"2018-12-05 16:22:07+00",9.3,10.3,,31.7,-349,235,22,1014.8,31.7,0
"2018-12-05 16:27:07+00",12.2,16.2,,31.5,-495,263,42,1014.61,31.7,0
"2018-12-05 16:32:07+00",12.9,15.9,,31.4,-507,294,67,1014.54,31.6,0
"2018-12-05 16:37:07+00",12.8,13.8,,31.2,-341,-93,208,1014.53,31.6,0
"2018-12-05 16:42:07+00",14.7,16.7,,31.2,-611,280,37,1014.37,31.5,0
"2018-12-05 16:47:07+00",12.2,13.2,,31.3,-503,222,28,1014.35,31.6,0
"2018-12-05 16:52:07+00",15.3,16.3,,31.2,-646,287,35,1014.23,31.5,0
"2018-12-05 16:57:07+00",15.1,18.1,,31.1,-626,264,35,1014.19,31.5,0
"2018-12-05 17:02:07+00",16.3,19.3,,30.8,-696,274,23,1014.09,31.3,0
"2018-12-05 17:07:07+00",17.5,19.5,,31,-736,321,32,1014.13,31.4,0
"2018-12-05 17:12:07+00",15.5,17.5,,30.9,-692,232,50,1014.04,31.4,0
"2018-12-05 17:17:07+00",14.5,16.5,,31,-619,287,30,1014,31.4,0
"2018-12-05 17:22:07+00",16.0,18.0,,31.1,-674,304,30,1013.92,31.5,0
"2018-12-05 17:27:07+00",15.4,18.4,,31.2,-656,281,51,1013.84,31.5,0
"2018-12-05 17:32:07+00",18.2,20.2,,31.3,-812,308,38,1013.81,31.7,0
"2018-12-05 17:37:07+00",15.7,16.7,,31.5,-649,350,35,1013.89,31.7,0
"2018-12-05 17:42:07+00",16.2,17.2,,31.7,-693,353,35,1013.76,31.9,0
"2018-12-05 17:47:07+00",15.7,17.7,,31.7,-685,319,31,1013.83,31.9,0
"2018-12-05 17:52:07+00",15.4,17.4,,31.8,-714,403,-11,1013.87,32,0
"2018-12-05 17:57:07+00",14.7,16.7,,31.8,-767,632,-128,1013.88,32,0
